{"data":{"norad_id":58373,"intl_designator":"2023-177Y","name":"STARLINK-30852","alt_names":[],"object_type":"PAYLOAD","status":"ACTIVE","operator":null,"country":"US","launch_date":"2023-11-18","launch_site_code":"AFETR","launch_vehicle":null,"mission":null,"orbit_class":"UNKNOWN","rcs_meters":null,"size_class":null,"mass_kg":null,"dimensions":null,"purposes":["comms"],"wikipedia_slug":null,"has_3d_model":false,"image_url":null,"decayed_at":null,"tle_current":{"epoch":"2026-05-25T02:05:33.068256Z","epoch_age_seconds":61479,"freshness":"FRESH","line1":"1 58373U 23177Y   26145.08718829  .00000708  00000+0  35248-4 0  9997","line2":"2 58373  43.0029 278.9314 0000875 279.9400  80.1353 15.27577036139917","mean_motion":15.27577036,"eccentricity":8.75e-5,"inclination_deg":43.0029,"raan_deg":278.9314,"arg_perigee_deg":279.94,"mean_anomaly_deg":80.1353,"bstar":3.5248e-5,"rev_number":13991,"period_min":94.266931622033,"perigee_km":482.45761677631,"apogee_km":483.65832589629,"semimajor_km":6861.1949713363,"source":"CELESTRAK","updated_at":"2026-05-25T13:38:18.611189Z"}}}